Parsons, KS

4:29 PM CST on December 10, 2019 (GMT -0600)
Tri-City

Weather History for KPPF - November, 2019

Change the Weather History Date:

Thursday, November 14, 2019

  Actual Average Record
Temperature  
Mean Temperature 38 °F -  
Max Temperature 51 °F 56 °F 79 °F (1964)
Min Temperature 24 °F 35 °F 9 °F (1986)
Degree Days  
Heating Degree Days 27    
Moisture  
Dew Point 26 °F    
Average Humidity 69    
Maximum Humidity 92    
Minimum Humidity 38    
Precipitation  
Precipitation 0.00 in - - ()
Sea Level Pressure  
Sea Level Pressure 30.35 in    
Wind  
Wind Speed 3 mph ()    
Max Wind Speed 14 mph    
Max Gust Speed 21 mph    
Visibility 10.0 miles    
Events      
Averages and records for this station are not official NWS values.
T = Trace of Precipitation, MM = Missing Value Source: Averaged Metar Reports

Daily Weather History Graph

Daily Weather History Graph

Search for Another Location

Airport or City:

Astronomy

Nov. 14, 2019 Rise Set
Actual Time 7:00 AM CST 5:12 PM CST
Civil Twilight 6:32 AM CST 5:40 PM CST
Nautical Twilight 6:00 AM CST 6:11 PM CST
Astronomical Twilight 5:29 AM CST 6:42 PM CST
Moon 7:00 PM CST (11/14) 8:55 AM CST (11/14)
Length of Visible Light 11h 07m
Length of Day
10h 12m
Waning Gibbous, 95% of the Moon is Illuminated
Nov 14
Waning Gibbous
Nov 19
Last Quarter
Nov 26
New
Dec 4
First Quarter
Dec 11
Full

Hourly Weather History & Observations

Time (CST) Temp. Windchill Dew Point Humidity Pressure Visibility Wind Dir Wind Speed Gust Speed Precip Events Conditions
12:52 AM 27.0 °F - 24.1 °F 89% 30.19 in 10.0 mi Calm Calm - N/A   Mostly Cloudy
1:52 AM 30.9 °F - 27.0 °F 85% 30.19 in 10.0 mi Calm Calm - N/A   Overcast
2:52 AM 30.0 °F - 26.1 °F 85% 30.22 in 10.0 mi Calm Calm - N/A   Scattered Clouds
4:52 AM 30.0 °F 25.2 °F 24.1 °F 79% 30.26 in 10.0 mi North 4.6 mph - N/A   Clear
6:52 AM 25.0 °F - 21.9 °F 88% 30.32 in 10.0 mi Calm Calm - N/A   Clear
7:52 AM 30.0 °F - 28.0 °F 92% 30.36 in 10.0 mi Calm Calm - N/A   Clear
8:52 AM 39.0 °F 33.4 °F 30.9 °F 73% 30.38 in 10.0 mi North 8.1 mph - N/A   Clear
9:52 AM 43.0 °F 37.7 °F 32.0 °F 65% 30.39 in 10.0 mi NE 9.2 mph 17.3 mph N/A   Clear
10:52 AM 46.9 °F - 28.0 °F 48% 30.40 in 10.0 mi North 8.1 mph - N/A   Clear
11:52 AM 48.0 °F - 27.0 °F 44% 30.39 in 10.0 mi Variable 6.9 mph - N/A   Clear
12:52 PM 50.0 °F - 27.0 °F 41% 30.37 in 10.0 mi North 9.2 mph - N/A   Clear
1:52 PM 51.1 °F - 27.0 °F 39% 30.36 in 10.0 mi NNW 13.8 mph 20.7 mph N/A   Clear
2:52 PM 51.1 °F - 27.0 °F 39% 30.36 in 10.0 mi NNW 9.2 mph - N/A   Clear
3:52 PM 50.0 °F - 25.0 °F 38% 30.37 in 10.0 mi North 8.1 mph - N/A   Clear
4:52 PM 45.0 °F 41.8 °F 24.1 °F 44% 30.38 in 10.0 mi North 5.8 mph - N/A   Clear
5:52 PM 32.0 °F - 26.1 °F 79% 30.40 in 10.0 mi Calm Calm - N/A   Clear
6:52 PM 30.9 °F - 25.0 °F 79% 30.41 in 10.0 mi Calm Calm - N/A   Clear
7:52 PM 28.0 °F - 25.0 °F 88% 30.42 in 10.0 mi Calm Calm - N/A   Clear
9:52 PM 26.1 °F - 23.0 °F 88% 30.43 in 10.0 mi Calm Calm - N/A   Clear
11:52 PM 24.1 °F - 21.9 °F 91% 30.44 in 10.0 mi Calm Calm - N/A   Clear